Total_Precipitation_Accumulation
0.00 0.00 0.00 0.00 0.00 0.00 0.00 0.00 0.00 0.00 0.01 0.06 0.04 0.14 0.09 0.13 0.13 0.19 0.35 0.79 1.36 1.44 1.78 1.41 0.54 0.16 0.01 0.00 0.00 0.00 0.00 0.00 0.00 0.00 0.00 0.00 0.00 0.00 0.00 0.00 0.00 0.00 0.00 0.00 0.00 0.00 0.00 0.00 0.00
0.00 0.00 0.00 0.00 0.00 0.00 0.00 0.00 0.00 0.00 0.04 0.24 0.25 0.28 0.24 0.61 0.39 0.32 0.42 0.42 0.24 0.27 0.41 1.89 1.96 0.57 0.08 0.01 0.00 0.00 0.00 0.00 0.00 0.00 0.00 0.00 0.00 0.00 0.00 0.00 0.00 0.00 0.00 0.00 0.00 0.00 0.00 0.00 0.00
0.00 0.00 0.00 0.00 0.00 0.00 0.00 0.00 0.00 0.05 0.09 0.10 0.10 0.16 0.33 1.08 0.61 0.44 0.50 0.54 0.59 0.45 0.44 0.45 1.01 1.06 0.35 0.01 0.00 0.00 0.00 0.00 0.00 0.00 0.00 0.00 0.00 0.00 0.00 0.00 0.00 0.00 0.00 0.00 0.00 0.00 0.00 0.00 0.00
0.00 0.00 0.00 0.00 0.00 0.00 0.00 0.00 0.00 0.02 0.03 0.05 0.05 0.24 0.48 0.78 0.52 0.49 0.38 0.76 1.18 1.11 1.01 1.09 1.04 0.56 0.58 0.09 0.00 0.00 0.00 0.00 0.00 0.00 0.00 0.00 0.00 0.00 0.00 0.00 0.00 0.00 0.00 0.00 0.00 0.00 0.00 0.00 0.00
0.00 0.00 0.00 0.00 0.00 0.00 0.00 0.00 0.00 0.00 0.14 0.18 0.06 0.37 0.72 0.54 0.27 0.38 0.42 0.74 0.90 1.51 1.63 1.56 2.41 1.54 0.94 0.31 0.02 0.00 0.00 0.00 0.00 0.00 0.00 0.00 0.00 0.00 0.00 0.00 0.00 0.00 0.00 0.00 0.00 0.00 0.00 0.00 0.00
0.00 0.00 0.00 0.00 0.00 0.00 0.00 0.01 0.01 0.05 0.05 0.04 0.10 0.49 0.78 0.45 0.31 0.36 0.23 0.56 1.03 1.23 1.60 1.95 2.62 3.64 1.57 0.78 0.23 0.01 0.00 0.00 0.00 0.00 0.00 0.00 0.00 0.00 0.00 0.00 0.00 0.00 0.00 0.00 0.00 0.00 0.00 0.00 0.00
0.00 0.00 0.00 0.00 0.00 0.00 0.09 0.09 0.00 0.06 0.05 0.22 0.31 0.58 0.48 0.41 0.47 0.35 0.46 1.36 2.00 2.94 3.35 2.88 3.20 3.61 2.43 1.47 0.88 0.06 0.00 0.00 0.00 0.00 0.00 0.00 0.00 0.00 0.00 0.00 0.00 0.00 0.00 0.00 0.00 0.00 0.00 0.00 0.00
0.00 0.00 0.00 0.00 0.00 0.01 0.08 0.03 0.06 0.06 0.15 0.36 0.18 0.44 0.53 0.42 0.46 0.41 0.39 0.89 2.06 3.12 5.11 4.69 5.20 5.14 2.43 1.42 0.86 0.18 0.01 0.00 0.00 0.00 0.00 0.00 0.00 0.00 0.00 0.00 0.00 0.00 0.00 0.00 0.00 0.00 0.00 0.00 0.00
0.00 0.00 0.00 0.00 0.00 0.00 0.00 0.02 0.20 0.08 0.10 0.19 0.06 0.12 0.29 0.26 0.26 0.27 0.24 0.31 0.91 1.82 2.62 3.15 3.00 3.46 3.10 1.54 0.68 0.20 0.02 0.00 0.00 0.00 0.00 0.00 0.00 0.00 0.00 0.00 0.00 0.00 0.00 0.00 0.00 0.00 0.00 0.00 0.00
0.00 0.00 0.00 0.00 0.00 0.00 0.00 0.00 0.17 0.06 0.15 0.48 0.23 0.13 0.20 0.22 0.18 0.16 0.09 0.12 0.32 0.64 1.35 1.70 1.56 1.02 0.80 0.88 0.65 0.26 0.06 0.00 0.00 0.00 0.00 0.00 0.00 0.00 0.00 0.00 0.00 0.00 0.00 0.00 0.00 0.00 0.00 0.00 0.00
0.00 0.00 0.00 0.00 0.00 0.00 0.00 0.01 0.08 0.23 0.33 0.42 0.46 0.19 0.15 0.19 0.12 0.10 0.07 0.06 0.15 0.29 0.56 0.72 0.94 0.85 0.50 0.29 0.27 0.18 0.07 0.01 0.00 0.00 0.00 0.00 0.01 0.00 0.00 0.00 0.00 0.00 0.00 0.00 0.00 0.00 0.00 0.00 0.00
0.00 0.00 0.00 0.00 0.00 0.00 0.00 0.01 0.08 0.21 0.26 0.09 0.10 0.11 0.15 0.15 0.08 0.06 0.05 0.06 0.08 0.14 0.41 0.40 0.41 0.39 0.27 0.15 0.13 0.11 0.08 0.02 0.02 0.01 0.00 0.00 0.00 0.00 0.00 0.00 0.00 0.00 0.00 0.00 0.00 0.00 0.00 0.00 0.00
0.00 0.00 0.00 0.00 0.00 0.00 0.00 0.00 0.07 0.29 0.08 0.03 0.04 0.23 0.31 0.20 0.03 0.04 0.06 0.05 0.05 0.14 0.21 0.39 0.35 0.19 0.12 0.08 0.12 0.15 0.09 0.06 0.05 0.00 0.00 0.00 0.00 0.00 0.00 0.00 0.00 0.00 0.00 0.00 0.00 0.00 0.00 0.00 0.00
0.00 0.00 0.00 0.00 0.00 0.00 0.00 0.05 0.09 0.37 0.06 0.06 0.05 0.21 0.48 0.55 0.08 0.03 0.04 0.04 0.05 0.13 0.19 0.21 0.26 0.28 0.21 0.11 0.05 0.06 0.05 0.04 0.08 0.00 0.00 0.00 0.00 0.00 0.00 0.00 0.00 0.00 0.00 0.00 0.00 0.00 0.00 0.00 0.00
0.00 0.00 0.02 0.03 0.01 0.00 0.04 0.19 0.34 0.11 0.05 0.07 0.01 0.01 0.35 0.85 0.22 0.03 0.01 0.02 0.02 0.08 0.19 0.26 0.23 0.26 0.20 0.17 0.17 0.13 0.07 0.01 0.00 0.00 0.01 0.00 0.01 0.01 0.01 0.01 0.01 0.00 0.00 0.00 0.00 0.00 0.00 0.00 0.00
0.00 0.00 0.01 0.04 0.03 0.02 0.15 0.48 0.05 0.02 0.04 0.03 0.00 0.00 0.05 0.10 0.02 0.00 0.00 0.00 0.00 0.01 0.08 0.18 0.26 0.19 0.14 0.11 0.12 0.10 0.07 0.06 0.02 0.04 0.05 0.05 0.03 0.03 0.02 0.03 0.01 0.00 0.00 0.00 0.00 0.00 0.00 0.00 0.00
0.00 0.00 0.00 0.01 0.01 0.01 0.05 0.33 0.12 0.03 0.04 0.02 0.00 0.00 0.00 0.00 0.00 0.00 0.00 0.00 0.00 0.00 0.01 0.10 0.18 0.15 0.09 0.09 0.07 0.02 0.02 0.04 0.05 0.07 0.11 0.09 0.04 0.08 0.02 0.07 0.08 0.00 0.00 0.00 0.00 0.00 0.00 0.00 0.00
0.00 0.00 0.00 0.02 0.02 0.01 0.01 0.03 0.25 0.12 0.01 0.01 0.04 0.01 0.00 0.00 0.00 0.00 0.00 0.00 0.00 0.00 0.00 0.00 0.05 0.10 0.08 0.05 0.03 0.00 0.02 0.10 0.08 0.09 0.15 0.13 0.02 0.02 0.04 0.10 0.05 0.00 0.00 0.00 0.00 0.00 0.00 0.00 0.00
0.00 0.00 0.00 0.00 0.01 0.00 0.00 0.01 0.01 0.00 0.00 0.01 0.03 0.01 0.00 0.00 0.00 0.00 0.00 0.00 0.00 0.00 0.00 0.00 0.00 0.03 0.08 0.04 0.00 0.01 0.06 0.09 0.07 0.13 0.20 0.18 0.06 0.07 0.12 0.13 0.05 0.00 0.00 0.00 0.00 0.00 0.00 0.00 0.00
0.00 0.00 0.00 0.00 0.00 0.00 0.00 0.00 0.00 0.00 0.00 0.00 0.00 0.00 0.00 0.00 0.00 0.00 0.00 0.00 0.00 0.00 0.00 0.00 0.00 0.02 0.06 0.01 0.00 0.00 0.02 0.05 0.04 0.06 0.10 0.09 0.09 0.08 0.09 0.09 0.07 0.03 0.01 0.00 0.00 0.00 0.00 0.00 0.00
0.00 0.00 0.00 0.00 0.00 0.00 0.00 0.00 0.00 0.01 0.01 0.01 0.00 0.00 0.00 0.00 0.00 0.00 0.00 0.00 0.00 0.00 0.00 0.02 0.02 0.03 0.08 0.01 0.00 0.02 0.09 0.13 0.07 0.04 0.10 0.07 0.08 0.06 0.12 0.04 0.02 0.09 0.01 0.01 0.03 0.00 0.00 0.00 0.00
0.00 0.00 0.00 0.00 0.00 0.00 0.00 0.00 0.00 0.00 0.01 0.00 0.00 0.00 0.00 0.00 0.00 0.00 0.00 0.00 0.00 0.00 0.03 0.04 0.04 0.08 0.10 0.07 0.06 0.06 0.13 0.14 0.13 0.10 0.05 0.07 0.04 0.07 0.19 0.08 0.03 0.11 0.09 0.01 0.01 0.00 0.01 0.01 0.00
0.00 0.00 0.00 0.00 0.00 0.00 0.00 0.00 0.00 0.00 0.02 0.00 0.00 0.00 0.00 0.00 0.00 0.00 0.00 0.00 0.00 0.02 0.07 0.09 0.10 0.18 0.12 0.24 0.27 0.21 0.21 0.20 0.19 0.10 0.07 0.07 0.06 0.09 0.18 0.10 0.08 0.06 0.11 0.04 0.01 0.01 0.01 0.01 0.00
0.00 0.00 0.00 0.00 0.00 0.00 0.00 0.00 0.00 0.00 0.01 0.00 0.00 0.00 0.00 0.00 0.00 0.00 0.00 0.00 0.01 0.03 0.08 0.28 0.31 0.21 0.19 0.34 0.41 0.26 0.21 0.17 0.27 0.26 0.13 0.15 0.12 0.16 0.30 0.28 0.16 0.08 0.07 0.06 0.02 0.01 0.01 0.01 0.01
0.00 0.00 0.00 0.01 0.00 0.00 0.00 0.00 0.00 0.00 0.00 0.00 0.00 0.00 0.00 0.00 0.00 0.00 0.00 0.00 0.00 0.03 0.09 0.18 0.32 0.41 0.27 0.25 0.23 0.21 0.18 0.21 0.16 0.16 0.20 0.23 0.19 0.22 0.24 0.24 0.13 0.08 0.07 0.04 0.03 0.02 0.02 0.02 0.04
0.00 0.00 0.01 0.09 0.03 0.02 0.03 0.00 0.00 0.00 0.00 0.00 0.00 0.00 0.00 0.00 0.00 0.00 0.00 0.00 0.01 0.06 0.06 0.06 0.29 0.41 0.48 0.33 0.16 0.14 0.08 0.06 0.07 0.14 0.19 0.13 0.12 0.10 0.14 0.10 0.09 0.07 0.08 0.06 0.02 0.02 0.02 0.00 0.01
0.00 0.00 0.00 0.02 0.05 0.04 0.05 0.01 0.00 0.00 0.00 0.00 0.00 0.00 0.00 0.00 0.00 0.00 0.00 0.00 0.02 0.05 0.04 0.08 0.10 0.27 0.37 0.24 0.12 0.06 0.03 0.04 0.07 0.09 0.08 0.07 0.06 0.09 0.08 0.05 0.05 0.04 0.04 0.02 0.01 0.00 0.00 0.00 0.00
0.00 0.00 0.00 0.00 0.03 0.05 0.00 0.01 0.01 0.00 0.00 0.00 0.00 0.00 0.00 0.00 0.00 0.00 0.01 0.06 0.02 0.03 0.02 0.11 0.10 0.10 0.22 0.27 0.23 0.07 0.07 0.09 0.11 0.11 0.17 0.15 0.10 0.08 0.07 0.04 0.01 0.01 0.00 0.00 0.00 0.00 0.00 0.00 0.00
0.00 0.00 0.00 0.00 0.00 0.01 0.02 0.00 0.00 0.00 0.00 0.00 0.00 0.00 0.00 0.00 0.00 0.00 0.01 0.04 0.05 0.10 0.07 0.05 0.12 0.35 0.31 0.27 0.14 0.10 0.13 0.26 0.35 0.22 0.25 0.24 0.15 0.10 0.08 0.03 0.01 0.01 0.01 0.02 0.00 0.00 0.00 0.00 0.01
0.00 0.00 0.00 0.00 0.00 0.00 0.02 0.00 0.00 0.00 0.00 0.00 0.00 0.00 0.00 0.00 0.00 0.00 0.00 0.00 0.02 0.02 0.01 0.01 0.05 0.16 0.24 0.24 0.16 0.33 0.58 0.54 0.67 0.60 0.54 0.37 0.16 0.11 0.09 0.04 0.02 0.01 0.01 0.01 0.00 0.01 0.01 0.03 0.06